[[{"header":{"parameterUnit":"m.s-1","parameterCategory":1,"la1":30.2991,"la2":30.254,"lo1":-89.0895,"lo2":-89.0444,"dy":0.0017,"dx":0.0017,"nx":28,"ny":28,"refTime":"2025-09-08T09:00:00:Z","depth":0,"parameterNumber":2,"parameterNumberName":"U-component_of_WINDS"},"data":[0,0,0,0,0,0,0,0,0,0,0,0,0,0,0,0,0,0,0,0,0,0,0,0,0,0,0,0,0,0,0,0,0,0,0,0,0,0,0,0,0,0,0,0,0,0,0,0,0,0,0,0,0,0,0,0,0,0,-1.2949,-1.2948,0,-1.2904,-1.2904,-1.2903,-1.2871,-1.2871,-1.2871,-1.2871,-1.2824,-1.2823,-1.2822,0,0,0,0,0,0,0,0,0,0,0,0,0,-1.3004,-1.3003,-1.2949,-1.2948,-1.2948,-1.2905,-1.2904,-1.2903,-1.2871,-1.2871,-1.2871,-1.2871,-1.2825,-1.2823,-1.2822,0,0,0,0,0,0,0,0,0,0,0,0,0,-1.2972,-1.3003,-1.2949,-1.2927,-1.2924,-1.2905,-1.2904,-1.2903,-1.2872,-1.2871,-1.2871,-1.287,-1.2825,-1.2823,-1.2822,-1.2821,0,0,-1.2817,-1.2817,0,0,0,0,0,0,0,0,-1.2974,-1.297,-1.293,-1.2928,-1.2925,-1.2893,-1.2906,-1.2876,-1.2872,-1.2891,-1.2871,-1.287,-1.2847,-1.2844,-1.2837,-1.2819,-1.2817,-1.2817,-1.2816,-1.2816,-1.2815,0,0,0,0,0,0,0,-1.2976,-1.2972,-1.2931,-1.293,-1.2927,-1.2918,-1.2913,-1.29,-1.2872,-1.289,-1.2887,-1.2883,-1.2846,-1.2838,-1.2835,-1.2816,-1.2817,-1.2816,-1.2815,-1.2815,-1.2794,-1.2794,0,0,0,0,0,0,-1.2982,-1.2974,-1.2933,-1.293,-1.2949,-1.2918,-1.2912,-1.2904,-1.2872,-1.2867,-1.2883,-1.2881,-1.2841,-1.2837,-1.2833,-1.2829,-1.2816,-1.2814,-1.2814,-1.2793,-1.2794,-1.2794,0,0,0,0,0,0,-1.2983,-1.2979,-1.2934,-1.2951,-1.2945,-1.2917,-1.2908,-1.2903,-1.2895,-1.2867,-1.2862,-1.288,-1.284,-1.2836,-1.2824,-1.2827,-1.2814,-1.2812,-1.2793,-1.2793,-1.2794,-1.2822,0,0,0,0,0,0,-1.2985,-1.2979,-1.2979,-1.2951,-1.2944,-1.2926,-1.2908,-1.2903,-1.2893,-1.289,-1.2863,-1.2858,-1.284,-1.2826,-1.2823,-1.2825,-1.2811,-1.2793,-1.2793,-1.2794,-1.282,-1.2823,-1.2825,0,0,0,0,0,-1.2987,-1.2988,-1.2979,-1.2974,-1.2943,-1.2927,-1.2922,-1.2901,-1.2893,-1.2892,-1.2874,-1.2859,-1.2828,-1.2826,-1.2821,-1.2823,-1.2792,-1.2793,-1.2794,-1.2819,-1.2822,-1.2825,0,0,0,0,0,0,-1.3017,-1.2984,-1.2974,-1.2966,-1.295,-1.2921,-1.292,-1.2906,-1.289,-1.2888,-1.2862,-1.2857,-1.2848,-1.2834,-1.2832,-1.282,-1.2808,-1.2808,-1.2829,-1.2832,-1.2834,-1.2838,-1.281,0,0,0,0,0,-1.3023,-1.3012,-1.2984,-1.2981,-1.2973,-1.2948,-1.294,-1.2925,-1.2906,-1.2899,-1.288,-1.2862,-1.2848,-1.2839,-1.2825,-1.2818,-1.2811,-1.2817,-1.282,-1.2822,-1.2822,-1.2817,-1.2819,-1.2797,-1.2797,-1.2797,0,0,-1.3034,-1.3015,-1.3011,-1.2986,-1.2971,-1.2961,-1.2942,-1.2932,-1.2923,-1.2897,-1.2885,-1.287,-1.2848,-1.2839,-1.2834,-1.2828,-1.2827,-1.2823,-1.2825,-1.2824,-1.2818,-1.282,-1.2822,-1.2797,-1.2797,-1.2797,0,0,-1.305,-1.3035,-1.303,-1.3016,-1.2993,-1.2977,-1.2975,-1.2949,-1.2938,-1.2926,-1.2906,-1.2895,-1.2872,-1.2857,-1.2846,-1.2856,-1.2841,-1.2852,-1.2865,-1.286,-1.2862,-1.2863,-1.2866,-1.2867,-1.2852,-1.2852,-1.2852,0,-1.3068,-1.3051,-1.3029,-1.302,-1.3009,-1.2985,-1.2979,-1.2966,-1.294,-1.2933,-1.2926,-1.2896,-1.288,-1.2866,-1.2869,-1.2861,-1.2858,-1.2855,-1.2863,-1.2865,-1.2866,-1.2868,-1.2869,-1.2853,-1.2853,-1.2853,-1.2853,0,-1.3073,-1.3062,-1.3061,-1.3036,-1.3026,-1.3018,-1.2994,-1.2986,-1.2972,-1.2956,-1.2943,-1.2922,-1.2903,-1.2899,-1.2885,-1.2883,-1.288,-1.2869,-1.2856,-1.287,-1.2871,-1.2872,-1.2856,-1.2855,-1.2855,-1.2854,0,0,-1.3107,-1.307,-1.307,-1.3059,-1.3032,-1.3023,-1.3014,-1.2995,-1.2988,-1.2971,-1.2962,-1.2943,-1.2932,-1.292,-1.2904,-1.29,-1.2908,-1.2889,-1.2888,-1.2893,-1.2904,-1.2912,-1.2914,-1.2898,-1.2898,-1.2898,-1.2906,0,-1.3119,-1.3102,-1.3081,-1.3071,-1.306,-1.3037,-1.3029,-1.3011,-1.2996,-1.2984,-1.2966,-1.2952,-1.294,-1.2932,-1.2927,-1.2908,-1.291,-1.2907,-1.2889,-1.2889,-1.2895,-1.2915,-1.2924,-1.2932,-1.2906,-1.2906,-1.2907,0,-1.313,-1.3114,-1.3103,-1.3077,-1.3071,-1.3065,-1.3046,-1.3034,-1.3014,-1.3003,-1.2989,-1.2972,-1.296,-1.295,-1.2933,-1.2932,-1.2923,-1.2913,-1.2912,-1.291,-1.2898,-1.2912,-1.2934,-1.2935,-1.2908,-1.2907,-1.2907,0,-1.3155,-1.3131,-1.3121,-1.3112,-1.3081,-1.3077,-1.3064,-1.3043,-1.3033,-1.3016,-1.3009,-1.2991,-1.2981,-1.2967,-1.2945,-1.2939,-1.293,-1.2918,-1.292,-1.2921,-1.2919,-1.292,-1.294,-1.2914,-1.2914,-1.2914,-1.2914,0,-1.317,-1.3164,-1.3132,-1.3126,-1.3118,-1.3094,-1.3087,-1.3071,-1.3053,-1.3043,-1.3021,-1.3012,-1.2984,-1.2972,-1.2954,-1.2943,-1.2939,-1.2929,-1.2924,-1.293,-1.2932,-1.2924,-1.2923,-1.2915,-1.2915,-1.2914,-1.2914,0,-1.3197,-1.3175,-1.3163,-1.3135,-1.3127,-1.3123,-1.3098,-1.3091,-1.3074,-1.3062,-1.3057,-1.3031,-1.3015,-1.2991,-1.2968,-1.2957,-1.2947,-1.294,-1.2955,-1.2952,-1.2955,-1.2955,-1.2971,-1.2971,-1.2946,-1.2947,-1.2947,0,-1.3208,-1.3202,-1.3174,-1.3166,-1.3154,-1.3141,-1.313,-1.3106,-1.3096,-1.3072,-1.3067,-1.3049,-1.3034,-1.3009,-1.2987,-1.2969,-1.2961,-1.2968,-1.2958,-1.2965,-1.2961,-1.2961,-1.296,-1.297,-1.2971,-1.2971,-1.2971,0,-1.3229,-1.3218,-1.3204,-1.3186,-1.3175,-1.3159,-1.3143,-1.3137,-1.3109,-1.3099,-1.3082,-1.307,-1.3046,-1.3029,-1.3008,-1.2993,-1.2978,-1.2975,-1.2974,-1.298,-1.2989,-1.2984,-1.2961,-1.2974,-1.2974,-1.2974,-1.2974,-1.2973,-1.3248,-1.3242,-1.3221,-1.3205,-1.3191,-1.3176,-1.3167,-1.3149,-1.3135,-1.3114,-1.31,-1.3084,-1.3063,-1.3033,-1.3019,-1.3006,-1.2999,-1.2999,-1.2999,-1.2999,-1.3001,-1.2991,-1.3002,-1.3002,-1.3002,-1.3002,-1.3002,0,-1.3267,-1.3253,-1.3239,-1.3217,-1.3205,-1.3191,-1.3172,-1.3162,-1.3149,-1.313,-1.3115,-1.3096,-1.3079,-1.3055,-1.3036,-1.303,-1.3022,-1.3026,-1.3026,-1.3022,-1.3008,-1.301,-1.3032,-1.3032,-1.3032,-1.3032,-1.3032,-1.3032,-1.3276,-1.3266,-1.3252,-1.3233,-1.3218,-1.3203,-1.3193,-1.3179,-1.3164,-1.3143,-1.3129,-1.3114,-1.3093,-1.3072,-1.3055,-1.3049,-1.3042,-1.3048,-1.3039,-1.3026,-1.3024,-1.3021,-1.3023,-1.3047,-1.3047,-1.3055,-1.3055,-1.3055]},{"header":{"parameterUnit":"m.s-1","parameterCategory":1,"la1":30.2991,"la2":30.254,"lo1":-89.0895,"lo2":-89.0444,"dy":0.0017,"dx":0.0017,"nx":28,"ny":28,"refTime":"2025-09-08T09:00:00:Z","depth":0,"parameterNumber":3,"parameterNumberName":"V-component_of_WINDS"},"data":[0,0,0,0,0,0,0,0,0,0,0,0,0,0,0,0,0,0,0,0,0,0,0,0,0,0,0,0,0,0,0,0,0,0,0,0,0,0,0,0,0,0,0,0,0,0,0,0,0,0,0,0,0,0,0,0,0,0,-2.3445,-2.3445,0,-2.344,-2.344,-2.344,-2.344,-2.344,-2.344,-2.344,-2.3431,-2.3431,-2.3431,0,0,0,0,0,0,0,0,0,0,0,0,0,-2.3453,-2.3453,-2.3445,-2.3445,-2.3445,-2.344,-2.344,-2.344,-2.344,-2.344,-2.344,-2.344,-2.3431,-2.3431,-2.343,0,0,0,0,0,0,0,0,0,0,0,0,0,-2.3449,-2.3453,-2.3445,-2.3444,-2.3444,-2.344,-2.344,-2.344,-2.344,-2.344,-2.344,-2.344,-2.3431,-2.3431,-2.343,-2.3426,0,0,-2.3429,-2.3429,0,0,0,0,0,0,0,0,-2.3449,-2.3448,-2.3445,-2.3444,-2.3444,-2.3441,-2.3439,-2.3435,-2.344,-2.3441,-2.344,-2.344,-2.3434,-2.3433,-2.3432,-2.3425,-2.3425,-2.3429,-2.3429,-2.3429,-2.3428,0,0,0,0,0,0,0,-2.3449,-2.3449,-2.3443,-2.3445,-2.3444,-2.3444,-2.3443,-2.3439,-2.3437,-2.3441,-2.3441,-2.3441,-2.3434,-2.3432,-2.3432,-2.3425,-2.3429,-2.3429,-2.3428,-2.3428,-2.3415,-2.3415,0,0,0,0,0,0,-2.345,-2.3449,-2.3443,-2.3443,-2.3447,-2.3443,-2.3443,-2.3442,-2.3437,-2.3437,-2.3441,-2.3441,-2.3433,-2.3432,-2.3431,-2.3427,-2.3429,-2.3428,-2.3428,-2.3415,-2.3415,-2.3415,0,0,0,0,0,0,-2.345,-2.3449,-2.3443,-2.3446,-2.3445,-2.3443,-2.3442,-2.3441,-2.344,-2.3437,-2.3436,-2.344,-2.3433,-2.3432,-2.3428,-2.3426,-2.3428,-2.3428,-2.3416,-2.3415,-2.3415,-2.3417,0,0,0,0,0,0,-2.345,-2.345,-2.3448,-2.3446,-2.3445,-2.344,-2.3442,-2.3441,-2.344,-2.344,-2.3436,-2.3435,-2.3433,-2.3428,-2.3427,-2.3426,-2.3427,-2.3416,-2.3416,-2.3415,-2.3417,-2.3416,-2.3416,0,0,0,0,0,-2.3451,-2.3447,-2.3448,-2.3447,-2.3443,-2.344,-2.344,-2.3439,-2.344,-2.3438,-2.3436,-2.3435,-2.3427,-2.3428,-2.3427,-2.3425,-2.3416,-2.3416,-2.3415,-2.3417,-2.3416,-2.3416,0,0,0,0,0,0,-2.3448,-2.3447,-2.3448,-2.3444,-2.3442,-2.344,-2.3438,-2.3438,-2.3435,-2.3435,-2.3433,-2.3432,-2.3428,-2.3426,-2.3427,-2.3421,-2.3421,-2.3421,-2.3423,-2.3422,-2.3422,-2.3423,-2.3427,0,0,0,0,0,-2.3447,-2.3446,-2.3445,-2.3441,-2.3441,-2.344,-2.3438,-2.3438,-2.3436,-2.3435,-2.3432,-2.3429,-2.3426,-2.3424,-2.3421,-2.3416,-2.3416,-2.3415,-2.3415,-2.3414,-2.3414,-2.3413,-2.3413,-2.3415,-2.3415,-2.3415,0,0,-2.3445,-2.3444,-2.3443,-2.3441,-2.344,-2.3438,-2.3439,-2.3436,-2.3435,-2.3434,-2.343,-2.3429,-2.3425,-2.3421,-2.3419,-2.3419,-2.3414,-2.3414,-2.3414,-2.3414,-2.3413,-2.3412,-2.3412,-2.3415,-2.3415,-2.3415,0,0,-2.344,-2.3439,-2.3437,-2.3437,-2.3436,-2.3435,-2.3435,-2.3433,-2.3432,-2.3429,-2.3429,-2.3426,-2.3421,-2.3419,-2.3417,-2.3414,-2.3413,-2.3413,-2.3412,-2.3411,-2.3411,-2.3411,-2.341,-2.341,-2.3413,-2.3413,-2.3413,0,-2.3437,-2.3435,-2.3436,-2.3434,-2.3434,-2.3434,-2.3432,-2.3431,-2.3428,-2.3428,-2.3428,-2.3422,-2.342,-2.3416,-2.3416,-2.3414,-2.3414,-2.3413,-2.3411,-2.3411,-2.3411,-2.341,-2.341,-2.3413,-2.3413,-2.3413,-2.3413,0,-2.3432,-2.3431,-2.343,-2.3429,-2.3428,-2.3426,-2.3426,-2.3425,-2.3425,-2.3424,-2.3422,-2.3419,-2.3416,-2.3415,-2.3414,-2.3412,-2.3412,-2.3412,-2.3412,-2.3411,-2.341,-2.341,-2.3413,-2.3413,-2.3413,-2.3413,0,0,-2.3425,-2.3426,-2.3426,-2.3426,-2.3426,-2.3424,-2.3423,-2.3421,-2.3421,-2.3419,-2.3418,-2.3414,-2.3415,-2.3413,-2.3412,-2.3411,-2.341,-2.3411,-2.3411,-2.3411,-2.3408,-2.3408,-2.3408,-2.3409,-2.3409,-2.3409,-2.3408,0,-2.3421,-2.3419,-2.3421,-2.3418,-2.3418,-2.3419,-2.3418,-2.3417,-2.3417,-2.3416,-2.3415,-2.3413,-2.3413,-2.3412,-2.3411,-2.341,-2.3409,-2.341,-2.3408,-2.3408,-2.3409,-2.3408,-2.3408,-2.3407,-2.3408,-2.3408,-2.3408,0,-2.3416,-2.3416,-2.3414,-2.3416,-2.3415,-2.3414,-2.3414,-2.3413,-2.3413,-2.3412,-2.3412,-2.3411,-2.341,-2.341,-2.3408,-2.3409,-2.3408,-2.3407,-2.3407,-2.3407,-2.3408,-2.3408,-2.3406,-2.3407,-2.3407,-2.3408,-2.3408,0,-2.3412,-2.3411,-2.3411,-2.3411,-2.3412,-2.3412,-2.3412,-2.3412,-2.3411,-2.3411,-2.3411,-2.3409,-2.3408,-2.3407,-2.3407,-2.3407,-2.3405,-2.3405,-2.3405,-2.3405,-2.3404,-2.3404,-2.3403,-2.3403,-2.3403,-2.3403,-2.3403,0,-2.3407,-2.3406,-2.3409,-2.3409,-2.3408,-2.341,-2.3409,-2.3409,-2.3409,-2.3409,-2.3409,-2.3408,-2.3408,-2.3407,-2.3406,-2.3405,-2.3404,-2.3404,-2.3404,-2.3405,-2.3405,-2.3404,-2.3404,-2.3403,-2.3403,-2.3403,-2.3403,0,-2.3402,-2.3404,-2.3404,-2.3406,-2.3407,-2.3406,-2.3407,-2.3407,-2.3408,-2.3407,-2.3407,-2.3407,-2.3407,-2.3406,-2.3405,-2.3404,-2.3403,-2.3403,-2.3404,-2.3404,-2.3404,-2.3405,-2.3403,-2.3403,-2.3402,-2.3402,-2.3402,0,-2.34,-2.3399,-2.3402,-2.3403,-2.3404,-2.3404,-2.3404,-2.3406,-2.3406,-2.3406,-2.3406,-2.3406,-2.3406,-2.3404,-2.3404,-2.3403,-2.3403,-2.3403,-2.3403,-2.3404,-2.3404,-2.3404,-2.3405,-2.3403,-2.3403,-2.3403,-2.3403,0,-2.3395,-2.3397,-2.3398,-2.3399,-2.34,-2.3401,-2.3402,-2.3402,-2.3404,-2.3404,-2.3404,-2.3404,-2.3404,-2.3404,-2.3404,-2.3403,-2.3403,-2.3403,-2.3403,-2.3403,-2.3404,-2.3405,-2.3405,-2.3403,-2.3403,-2.3403,-2.3403,-2.3403,-2.3392,-2.3392,-2.3395,-2.3396,-2.3398,-2.3399,-2.3399,-2.3401,-2.3401,-2.3402,-2.3403,-2.3403,-2.3404,-2.3404,-2.3403,-2.3403,-2.3403,-2.3403,-2.3403,-2.3403,-2.3404,-2.3404,-2.3403,-2.3403,-2.3403,-2.3403,-2.3403,0,-2.3388,-2.339,-2.3391,-2.3394,-2.3395,-2.3397,-2.3398,-2.3399,-2.34,-2.3401,-2.3402,-2.3402,-2.3403,-2.3403,-2.3403,-2.3403,-2.3404,-2.3403,-2.3404,-2.3404,-2.3403,-2.3404,-2.3404,-2.3404,-2.3404,-2.3404,-2.3404,-2.3404,-2.3386,-2.3387,-2.3389,-2.3392,-2.3393,-2.3395,-2.3396,-2.3397,-2.3398,-2.34,-2.3401,-2.3402,-2.3402,-2.3403,-2.3404,-2.3404,-2.3404,-2.3404,-2.3404,-2.3404,-2.3404,-2.3403,-2.3404,-2.3404,-2.3404,-2.3405,-2.3405,-2.3405]}]]